Location: Eastchurch
(51.4000°N, 0.8667°E)
Time: 22:35:37
(UTC+00:00)

Resurs 1-3 - Pass Details

Date: 19 January 2026
Orbit: 613 x 615 km, 97.7° (Epoch: 7 February)

Event Time Altitude Azimuth Distance (km) Brightness Sun altitude
Rises 18:34:20 0° 177° (S) 2,874 7.1 -19.8°
Reaches altitude 10° 18:36:33 10° 182° (S) 1,973 6.2 -20.1°
Maximum altitude 18:40:45 53° 260° (W) 761 4.3 -20.8°
Drops below altitude 10° 18:45:00 10° 338° (NNW) 1,988 6.3 -21.5°
Sets 18:47:14 0° 343° (NNW) 2,897 7.1 -21.8°
